Showing default

KINEIS-1E, 60083

Orbit data source: Space-Track

KINEIS-1E, 60083 is a French payload satellite in SSO that was launched on Thu, 20 Jun 2024 UTC via an ELECTRON launch vehicle from the Rocket Lab Launch Complex (RLLC). Payload-class satellites include a variety of spacecraft equipped with specific instruments for various scientific and technological missions. These include communications satellites like Starlink; space stations such as the ISS; scientific satellites like the Hubble; Earth observation satellites from companies like Planet Labs, Umbra, and HawkEye 360; GPS; miniature CubeSats for education and research; and military/defense satellites.

Loading next visibility...
Identifier
60083, 2024-114E
Orbit
SSO
Country
Flag of FRFR
Related business
Manufacturer
KINEIS
Mission
Operational Commercial Communications
Bus & Motor
CUBESAT 16U, Unknown motor
Mass
28 kg wet, 28 kg dry
Launch date (UTC)
2024-06-20 (2 years ago)
Launch vehicle
ELECTRON
Launch site
Rocket Lab Launch Complex (RLLC)
Object type
Payload
Rocket body
Debris
Shape & HBR
Box + 2 Pan + 1 Ant, 1.0 m
Radar Cross Section
0.229 m², Medium (>0.1 m² and < 1m²)

Expand to show TLE details & history
Last TLE update: 10 hours ago

TLE from 10 hours ago
0 KINEIS-1E
1 60083U 24114E   26255.34468145  .00000462  00000-0  66636-4 0  9997
2 60083  97.8937 277.3959 0001208 306.3008  53.8092 14.80768106120286
Epoch: 2026-09-12T08:16Z
TLE epoch observation values (Epoch: 2026-09-12T08:16:20.477Z)
Latitude
-0.00008°
Longitude
161.95556°
Altitude
629.424 km
Speed
7.544 km/s
True Right ascension
18h 29m 35s
True Declination
0° 00' 00"
Sunlit
Object was in daylight at epoch
Visualization orbit readout
Latitude
Unknown
Longitude
Unknown
Altitude
Unknown
Speed
Unknown
Apparent Right ascension
Unknown
Apparent Declination
Unknown
Sunlit
N/A
Visualization observer readout
Local Sidereal Time
10:37:58
Azimuth
Unknown
Elevation
Unknown
Doppler factor
Unknown
Orbital elements
Apogee altitude
624.786 km
Perigee altitude
623.094 km
Semi-major axis
7,002.077 km
Eccentricity
0.00012
Inclination
97.8937°
RAAN
277.3959°
Arg. of periapsis
306.3008°
True anomaly
53.82037°
Mean anomaly
53.8092°
Eccentric anomaly
53.81479°
Mean motion
3.70427 °/min
Orbital period
97.19 mins
BSTAR
0.000066636
Loading maneuver chart data...
Computing Atmospheric mass density...
Loading historical data...
Loading historical data...
Loading historical data...
Loading historical data...
Loading historical data...
Loading historical data...
Loading historical data...

Documentation

Showing up to 5 results
|